Location: Newark
(34.0111°N, 88.4892°W)
Time: 08:11:55
(UTC+00:00)

PicSat - Visible Passes

Search period start: 06 June 2020 00:00
Search period end: 16 June 2020 00:00
Orbit: 482 x 497 km, 97.4° (Epoch: 05 June)

Date Brightness Start Highest point End Pass type
(mag) Time Alt. Az. Time Alt. Az. Time Alt. Az.
06 Jun ? 04:11:13 28° NW 04:11:13 28° NW 04:13:07 10° NNW visible
07 Jun ? 03:48:15 35° N 03:48:15 35° N 03:50:29 10° N visible
08 Jun ? 03:25:17 26° NE 03:25:17 26° NE 03:27:30 10° N visible
09 Jun ? 03:02:19 16° ENE 03:02:19 16° ENE 03:03:59 10° NNE visible
09 Jun ? 04:36:47 16° WNW 04:36:47 16° WNW 04:37:56 10° NW visible
10 Jun ? 04:13:49 28° NW 04:13:49 28° NW 04:15:45 10° NNW visible
11 Jun ? 03:50:50 37° N 03:50:50 37° N 03:53:07 10° N visible
12 Jun ? 03:27:51 28° NE 03:27:51 28° NE 03:30:10 10° N visible
13 Jun ? 03:04:53 17° ENE 03:04:53 17° ENE 03:06:43 10° NNE visible
13 Jun ? 04:39:21 16° WNW 04:39:21 16° WNW 04:40:27 10° NW visible
14 Jun ? 04:16:22 27° NW 04:16:22 27° NW 04:18:18 10° NNW visible
15 Jun ? 03:53:23 39° N 03:53:23 39° N 03:55:43 10° N visible
